When you browse on this site, cookies collect data to enhance your experience and personalize the content and advertising you see.
Visit our Privacy Policy to learn more. By continuing to use the site, you agree to this use of cookies and data.
  • In Czech Republic
  • List of Countries
  • For 7 days
  • Water Temperature
  • Weather Map
  • Weather Widgets
  • user-avatar
    Login

    Hourly Weather Quito

    Today, 14 December, Saturday

    Time Temperature Precipitation Wind Pressure Humidity
    00:00 +18°C° 1.7 mm 1 mps 621 mmHg 95%
    01:00 +16°C° 1.7 mm 1 mps 621 mmHg 96%
    02:00 +16°C° 0.3 mm 1 mps 621 mmHg 95%
    03:00 +15°C° 0.3 mm 0 mps 621 mmHg 94%
    04:00 +15°C° 0.3 mm 0 mps 621 mmHg 93%
    05:00 +16°C° 0.1 mm 0 mps 622 mmHg 91%
    06:00 +17°C° 0.1 mm 0 mps 623 mmHg 90%
    07:00 +18°C° 0.1 mm 0 mps 623 mmHg 88%
    08:00 +22°C° 0.7 mm 1 mps 624 mmHg 83%
    09:00 +23°C° 0.7 mm 2 mps 624 mmHg 78%
    10:00 +24°C° 0.7 mm 3 mps 624 mmHg 73%
    11:00 +24°C° 0.6 mm 3 mps 624 mmHg 71%
    12:00 +25°C° 0.6 mm 3 mps 623 mmHg 69%
    13:00 +25°C° 0.6 mm 4 mps 623 mmHg 68%
    14:00 +25°C° 0.7 mm 3 mps 623 mmHg 70%
    15:00 +24°C° 0.7 mm 3 mps 622 mmHg 71%
    16:00 +24°C° 0.7 mm 2 mps 621 mmHg 73%
    17:00 +22°C° 0.3 mm 1 mps 621 mmHg 78%
    18:00 +21°C° 0.3 mm 1 mps 621 mmHg 82%
    19:00 +17°C° 0.3 mm 0 mps 621 mmHg 86%
    20:00 +17°C° 0.6 mm 0 mps 622 mmHg 88%
    21:00 +16°C° 0.6 mm 0 mps 622 mmHg 90%
    22:00 +16°C° 0.6 mm 0 mps 622 mmHg 92%
    23:00 +16°C° 0.2 mm 0 mps 622 mmHg 93%

    Tomorrow, 15 December, Sunday

    Time Temperature Precipitation Wind Pressure Humidity
    00:00 +15°C° 0.2 mm 0 mps 622 mmHg 93%
    01:00 +15°C° 0.2 mm 0 mps 621 mmHg 94%
    02:00 +15°C° 0.1 mm 0 mps 621 mmHg 95%
    03:00 +16°C° 0.1 mm 1 mps 621 mmHg 95%
    04:00 +16°C° 0.1 mm 1 mps 621 mmHg 95%
    05:00 +18°C° 0 mm 1 mps 621 mmHg 94%
    06:00 +17°C° 0 mm 2 mps 622 mmHg 93%
    07:00 +18°C° 0 mm 2 mps 623 mmHg 92%
    08:00 +20°C° 0.5 mm 2 mps 623 mmHg 84%
    09:00 +23°C° 0.5 mm 2 mps 623 mmHg 76%
    10:00 +24°C° 0.5 mm 2 mps 624 mmHg 68%
    11:00 +25°C° 0.5 mm 2 mps 623 mmHg 66%
    12:00 +25°C° 0.5 mm 2 mps 623 mmHg 64%
    13:00 +26°C° 0.5 mm 2 mps 622 mmHg 62%
    14:00 +25°C° 1.1 mm 2 mps 622 mmHg 69%
    15:00 +24°C° 1.1 mm 2 mps 621 mmHg 75%
    16:00 +23°C° 1.1 mm 2 mps 620 mmHg 81%
    17:00 +22°C° 0.4 mm 1 mps 620 mmHg 84%
    18:00 +21°C° 0.4 mm 1 mps 620 mmHg 86%
    19:00 +20°C° 0.4 mm 1 mps 620 mmHg 88%
    20:00 +19°C° 0.7 mm 1 mps 621 mmHg 90%
    21:00 +19°C° 0.7 mm 1 mps 621 mmHg 93%
    22:00 +18°C° 0.7 mm 1 mps 622 mmHg 96%
    23:00 +18°C° 2.1 mm 1 mps 621 mmHg 96%

    Day after tomorrow, 16 December, Monday

    Time Temperature Precipitation Wind Pressure Humidity
    00:00 +18°C° 2.1 mm 1 mps 621 mmHg 97%
    01:00 +16°C° 2.1 mm 1 mps 621 mmHg 97%
    02:00 +16°C° 2.6 mm 1 mps 620 mmHg 97%
    03:00 +16°C° 2.6 mm 2 mps 620 mmHg 97%
    04:00 +16°C° 2.6 mm 2 mps 620 mmHg 97%
    05:00 +18°C° 0.4 mm 1 mps 621 mmHg 97%
    06:00 +18°C° 0.4 mm 1 mps 621 mmHg 96%
    07:00 +18°C° 0.4 mm 1 mps 621 mmHg 95%
    08:00 +19°C° 0.7 mm 1 mps 622 mmHg 92%
    09:00 +20°C° 0.7 mm 1 mps 622 mmHg 88%
    10:00 +22°C° 0.7 mm 1 mps 623 mmHg 85%
    11:00 +22°C° 0.6 mm 1 mps 623 mmHg 82%
    12:00 +21°C° 0.6 mm 2 mps 622 mmHg 78%
    13:00 +23°C° 0.6 mm 2 mps 622 mmHg 75%
    14:00 +23°C° 0.4 mm 2 mps 621 mmHg 76%
    15:00 +22°C° 0.4 mm 1 mps 621 mmHg 76%
    16:00 +22°C° 0.4 mm 1 mps 621 mmHg 77%
    17:00 +21°C° 0.3 mm 1 mps 620 mmHg 83%
    18:00 +20°C° 0.3 mm 1 mps 620 mmHg 88%
    19:00 +18°C° 0.3 mm 1 mps 620 mmHg 93%
    20:00 +18°C° 0.1 mm 1 mps 620 mmHg 95%
    21:00 +18°C° 0.1 mm 1 mps 621 mmHg 96%
    22:00 +16°C° 0.1 mm 1 mps 621 mmHg 97%
    23:00 +16°C° 0 mm 1 mps 620 mmHg 97%

    17 December, Tuesday

    Time Temperature Precipitation Wind Pressure Humidity
    00:00 +16°C° 0 mm 1 mps 620 mmHg 97%
    01:00 +16°C° 0 mm 1 mps 620 mmHg 97%
    02:00 +16°C° 0 mm 1 mps 620 mmHg 97%
    03:00 +16°C° 0 mm 1 mps 620 mmHg 96%
    04:00 +15°C° 0 mm 0 mps 620 mmHg 96%
    05:00 +15°C° 0.3 mm 0 mps 620 mmHg 96%
    06:00 +15°C° 0.3 mm 0 mps 621 mmHg 97%
    07:00 +16°C° 0.3 mm 0 mps 621 mmHg 97%
    08:00 +18°C° 0.7 mm 1 mps 621 mmHg 96%
    09:00 +18°C° 0.7 mm 1 mps 621 mmHg 96%
    10:00 +18°C° 0.7 mm 1 mps 621 mmHg 95%
    11:00 +20°C° 0.6 mm 1 mps 621 mmHg 89%
    12:00 +22°C° 0.6 mm 1 mps 621 mmHg 84%
    13:00 +24°C° 0.6 mm 1 mps 621 mmHg 78%
    14:00 +23°C° 1.5 mm 1 mps 621 mmHg 80%
    15:00 +23°C° 1.5 mm 1 mps 620 mmHg 82%
    16:00 +23°C° 1.5 mm 1 mps 620 mmHg 84%
    17:00 +21°C° 1.9 mm 1 mps 620 mmHg 86%
    18:00 +20°C° 1.9 mm 1 mps 620 mmHg 89%
    19:00 +19°C° 1.9 mm 1 mps 620 mmHg 92%
    20:00 +19°C° 0.7 mm 1 mps 620 mmHg 93%
    21:00 +18°C° 0.7 mm 1 mps 621 mmHg 94%
    22:00 +18°C° 0.7 mm 1 mps 621 mmHg 95%
    23:00 +18°C° 0.2 mm 1 mps 621 mmHg 96%

    18 December, Wednesday

    Time Temperature Precipitation Wind Pressure Humidity
    00:00 +18°C° 0.2 mm 1 mps 620 mmHg 97%
    01:00 +16°C° 0.2 mm 1 mps 620 mmHg 98%
    02:00 +16°C° 0 mm 1 mps 619 mmHg 98%
    03:00 +16°C° 0 mm 1 mps 619 mmHg 98%
    04:00 +16°C° 0 mm 1 mps 619 mmHg 98%
    05:00 +16°C° 0.1 mm 1 mps 620 mmHg 98%
    06:00 +18°C° 0.1 mm 1 mps 620 mmHg 97%
    07:00 +17°C° 0.1 mm 2 mps 621 mmHg 97%
    08:00 +18°C° 0.4 mm 2 mps 621 mmHg 95%
    09:00 +19°C° 0.4 mm 2 mps 622 mmHg 93%
    10:00 +20°C° 0.4 mm 2 mps 622 mmHg 90%
    11:00 +22°C° 1.6 mm 1 mps 622 mmHg 87%
    12:00 +23°C° 1.6 mm 1 mps 621 mmHg 84%
    13:00 +24°C° 1.6 mm 1 mps 621 mmHg 80%
    14:00 +24°C° 2.5 mm 1 mps 620 mmHg 83%
    15:00 +23°C° 2.5 mm 2 mps 620 mmHg 86%
    16:00 +21°C° 2.5 mm 2 mps 619 mmHg 89%
    17:00 +20°C° 1.6 mm 2 mps 619 mmHg 91%
    18:00 +19°C° 1.6 mm 2 mps 620 mmHg 93%
    19:00 +18°C° 1.6 mm 2 mps 620 mmHg 95%
    20:00 +18°C° 2.6 mm 2 mps 620 mmHg 96%
    21:00 +18°C° 2.6 mm 2 mps 621 mmHg 97%
    22:00 +17°C° 2.6 mm 2 mps 621 mmHg 98%
    23:00 +17°C° 0.9 mm 2 mps 621 mmHg 98%

    19 December, Thursday

    Time Temperature Precipitation Wind Pressure Humidity
    00:00 +18°C° 0.9 mm 1 mps 620 mmHg 98%
    01:00 +18°C° 0.9 mm 1 mps 620 mmHg 98%
    02:00 +18°C° 0.3 mm 1 mps 620 mmHg 98%
    03:00 +18°C° 0.3 mm 1 mps 620 mmHg 98%
    04:00 +18°C° 0.3 mm 1 mps 620 mmHg 98%
    05:00 +18°C° 0 mm 1 mps 620 mmHg 98%
    06:00 +16°C° 0 mm 0 mps 621 mmHg 97%
    07:00 +17°C° 0 mm 0 mps 621 mmHg 96%
    08:00 +20°C° 0.1 mm 1 mps 622 mmHg 93%
    09:00 +20°C° 0.1 mm 1 mps 622 mmHg 91%
    10:00 +21°C° 0.1 mm 1 mps 622 mmHg 88%
    11:00 +21°C° 0.6 mm 2 mps 622 mmHg 83%
    12:00 +23°C° 0.6 mm 2 mps 622 mmHg 79%
    13:00 +25°C° 0.6 mm 3 mps 622 mmHg 74%
    14:00 +24°C° 1.5 mm 2 mps 621 mmHg 78%
    15:00 +24°C° 1.5 mm 2 mps 621 mmHg 81%
    16:00 +23°C° 1.5 mm 2 mps 620 mmHg 85%
    17:00 +21°C° 1.9 mm 2 mps 620 mmHg 88%
    18:00 +19°C° 1.9 mm 2 mps 620 mmHg 91%
    19:00 +18°C° 1.9 mm 2 mps 620 mmHg 95%
    20:00 +18°C° 1.2 mm 2 mps 621 mmHg 95%
    21:00 +17°C° 1.2 mm 2 mps 621 mmHg 95%
    22:00 +17°C° 1.2 mm 3 mps 622 mmHg 95%
    23:00 +17°C° 0 mm 3 mps 622 mmHg 95%
    Show more